Regional Weather Roundup
Issued by NWS

Home | Current Version | Previous Version | Text Only | Print | Product List | Glossary Off
Versions: 1 2 3 4 5 6 7 8 9 10 11 12 13 14 15 16 17 18 19 20 21 22 23 24 25 26 27

000
ASUS45 KBOI 190610
RWRID

IDAHO REGIONAL WEATHER ROUNDUP
NATIONAL WEATHER SERVICE BOISE ID
1100 PM MST SAT NOV 18 2017

NOTE: "FAIR" INDICATES FEW OR NO CLOUDS BELOW 12000 FEET
WITH NO SIGNIFICANT WEATHER AND/OR OBSTRUCTIONS TO VISIBILITY

IDZ012-014-190700-
SOUTHWEST IDAHO


CITY           SKY/WX    TMP DP  RH WIND       PRES   REMARKS
BOISE          PTCLDY    34  22  61 S9        30.27S WCI  27
CALDWELL       PTCLDY    35  25  66 E9        30.28S WCI  28
MOUNTAIN HOME  PTCLDY    32  26  78 SE10      30.28S WCI  24
$$

IDZ016-017-190700-
SOUTHCENTRAL IDAHO


CITY           SKY/WX    TMP DP  RH WIND       PRES   REMARKS
BURLEY         MOCLDY    27  23  85 CALM      30.29R
JEROME         MOCLDY    31  24  75 NE12      30.28F WCI  22
TWIN FALLS     MOCLDY    24  21  88 CALM      30.27F
$$

IDZ019>023-190700-
SOUTHEAST IDAHO


CITY           SKY/WX    TMP DP  RH WIND       PRES   REMARKS
IDAHO FALLS    CLOUDY    23  20  88 N3        30.34F
POCATELLO      CLOUDY    28  21  75 NE3       30.32F
REXBURG        CLOUDY    28  20  71 CALM      30.34S
$$

IDZ006-010-011-018-031-032-190700-
CENTRAL IDAHO MOUNTAINS


CITY           SKY/WX    TMP DP  RH WIND       PRES   REMARKS
MCCALL         MOCLDY    22  18  85 CALM      30.22F
HAILEY         MOCLDY    25  18  74 NW9       30.32S WCI  15
STANLEY          N/A      6   2  83 CALM      30.26F
SALMON         CLOUDY    22  18  85 CALM      30.28R
CHALLIS        CLEAR     23  15  71 CALM      30.28S
$$

IDZ002-004-006-007-026-190700-
NORTHERN IDAHO


CITY           SKY/WX    TMP DP  RH WIND       PRES   REMARKS
LEWISTON       MOCLDY    41  27  57 NW5       30.17S
LOWELL           N/A     33  33 100 CALM      30.27S
COEUR D`ALENE  MOCLDY    29  27  92 E3        30.16S
MULLAN PASS    PTCLDY    23  18  81 VRB6      30.07S WCI  16
$$




USA.gov is the U.S. government's official web portal to all federal, state and local government web resources and services.